Weather History for Cortez, CO

Change the Weather History Date:

Sunday, October 17, 2010

  Actual Average Record
Temperature  
Mean Temperature 52 °F 48 °F  
Max Temperature 75 °F 65 °F 75 °F (2001)
Min Temperature 32 °F 31 °F 19 °F (1999)
Degree Days  
Heating Degree Days 12 17  
Month to date heating degree days 235  
Since 1 July heating degree days 407  
Cooling Degree Days 0 0  
Month to date cooling degree days 0  
Year to date cooling degree days 426  
Growing Degree Days 2 (Base 50)    
Moisture  
Dew Point 30 °F    
Average Humidity 48    
Maximum Humidity 79    
Minimum Humidity 21    
Precipitation  
Precipitation 0.00 in 0.03 in 0.26 in (2006)
Month to date precipitation 0.82  
Year to date precipitation 11.04  
Sea Level Pressure  
Sea Level Pressure 30.05 in    
Wind  
Wind Speed 4 mph (East)    
Max Wind Speed 10 mph    
Max Gust Speed -    
Visibility 10 miles    
Events      
T = Trace of Precipitation, MM = Missing Value Source: NWS Daily Summary

Daily Weather History Graph

Daily Weather History Graph

Search for Another Location

Airport:

Trip Planner

Search our weather history database for the weather conditions in past years. The results will help you decide how hot, cold, wet, or windy it might be!

Date:

Astronomy

Oct. 17, 2010 Rise Set
Actual Time 7:24 AM MDT 6:34 PM MDT
Civil Twilight 6:58 AM MDT 7:01 PM MDT
Nautical Twilight 6:27 AM MDT 7:31 PM MDT
Astronomical Twilight 5:57 AM MDT 8:01 PM MDT
Moon 3:49 PM MDT (10/17) 2:25 AM MDT (10/17)
Length of Visible Light 12h 03m
Length of Day
11h 10m
Waxing Gibbous, 76% of the Moon is Illuminated
Oct 17
Waxing Gibbous
Oct 22
Full
Oct 30
Last Quarter
Nov 5
New
Nov 13
First Quarter

Hourly Weather History & Observations

Time (MDT) Temp. Windchill Dew Point Humidity Pressure Visibility Wind Dir Wind Speed Gust Speed Precip Events Conditions
12:53 AM 42.1 °F 40.2 °F 28.9 °F 60% 30.06 in 10.0 mi ENE 3.5 mph - N/A   Mostly Cloudy
1:53 AM 37.9 °F 35.5 °F 27.0 °F 65% 30.07 in 10.0 mi East 3.5 mph - N/A   Partly Cloudy
2:53 AM 36.0 °F 31.1 °F 27.0 °F 70% 30.08 in 10.0 mi ENE 5.8 mph - N/A   Clear
4:53 AM 35.1 °F 32.2 °F 27.0 °F 72% 30.08 in 10.0 mi East 3.5 mph - N/A   Clear
5:53 AM 34.0 °F 29.8 °F 26.1 °F 73% 30.09 in 10.0 mi ENE 4.6 mph - N/A   Clear
6:53 AM 32.0 °F - 26.1 °F 79% 30.12 in 10.0 mi Calm Calm - N/A   Clear
7:53 AM 33.1 °F - 26.1 °F 75% 30.16 in 10.0 mi Calm Calm - N/A   Clear
8:53 AM 46.0 °F 43.9 °F 30.0 °F 54% 30.15 in 10.0 mi East 4.6 mph - N/A   Clear
9:53 AM 55.0 °F - 30.9 °F 40% 30.12 in 10.0 mi Calm Calm - N/A   Clear
10:53 AM 63.0 °F - 30.9 °F 30% 30.10 in 10.0 mi Calm Calm - N/A   Clear
11:53 AM 66.9 °F - 30.0 °F 25% 30.07 in 10.0 mi SSW 4.6 mph - N/A   Clear
12:53 PM 72.0 °F - 30.0 °F 21% 30.03 in 10.0 mi SSE 4.6 mph - N/A   Scattered Clouds
1:53 PM 73.9 °F - 32.0 °F 21% 30.00 in 10.0 mi South 6.9 mph - N/A   Clear
2:53 PM 68.0 °F - 30.9 °F 25% 30.00 in 10.0 mi SSW 4.6 mph - N/A   Clear
3:53 PM 72.0 °F - 30.9 °F 22% 29.96 in 10.0 mi West 3.5 mph - N/A   Clear
4:53 PM 70.0 °F - 30.9 °F 24% 29.97 in 10.0 mi WNW 10.4 mph - N/A   Clear
5:53 PM 66.0 °F - 32.0 °F 28% 29.98 in 10.0 mi West 6.9 mph - N/A   Clear
6:53 PM 55.0 °F - 33.1 °F 43% 30.02 in 10.0 mi East 5.8 mph - N/A   Clear
7:53 PM 50.0 °F - 32.0 °F 50% 30.04 in 10.0 mi ENE 3.5 mph - N/A   Clear
8:53 PM 50.0 °F - 30.9 °F 48% 30.01 in 10.0 mi ENE 5.8 mph - N/A   Mostly Cloudy
9:53 PM 46.0 °F 43.9 °F 32.0 °F 58% 29.99 in 10.0 mi East 4.6 mph - N/A   Scattered Clouds
10:53 PM 42.1 °F 40.2 °F 30.9 °F 65% 29.99 in 10.0 mi East 3.5 mph - N/A   Clear
11:53 PM 44.1 °F 41.5 °F 32.0 °F 63% 29.96 in 10.0 mi East 4.6 mph - N/A   Scattered Clouds